Flag for Germany Weather past 2 weeks in Paderborn, North Rhine-Westphalia, Germany

Now
77 °F

Passing clouds.


Feels Like: 79 °F
Forecast: 64 / 80 °F
Wind: 7 mph from Northeast

Location: Paderborn / Lippstadt

Current Time: Jul 22, 2014 at 6:31:59 PM

Latest Report: Jul 22, 2014 at 5:50 PM


Visibility: N/A

Pressure: 30.07 "Hg

Humidity: 51%

Dew point: 57 °F

Location of PaderbornLocation

Historic Weather in Paderborn — Graph

°F

Paderborn temperature yesterday

Maximum temperature yesterday: 68 °F (at 6:20 PM)
Minimum temperature yesterday: 63 °F (at 5:50 AM)
Average temperature yesterday: 65 °F

Past Weeks' High & Low Weather Summary

 TemperatureHumidityPressure
High88 °F (Jul 19, 1:50 PM)100% (Jul 8, 5:50 AM)30.21 "Hg (Jul 8, 5:50 AM)
Low52 °F (Jul 9, 3:50 AM)27% (Jul 19, 1:20 PM)29.65 "Hg (Jul 9, 2:50 PM)
Average67 °F73%29.95 "Hg
* Reported Jul 7 5:20 PM — Jul 22 5:20 PM, Paderborn, Weather by CustomWeather, © 2014

Note: Actual official high and low records may vary slightly from our data, if they occured in-between our weather recording intervals... More about our weather records

Advertising

Paderborn weather history for previous 24 hours

 ConditionsComfort  
Time TempWeatherWind HumidityBarometerVisibility
5:20 PM
Jul 22
79 °FPassing clouds.8 mph51%30.07 "HgN/A
4:50 PM77 °FPassing clouds.7 mph54%30.07 "HgN/A
4:20 PM77 °FPassing clouds.6 mph54%30.07 "HgN/A
3:50 PM77 °FPassing clouds.8 mph54%30.07 "HgN/A
3:20 PM75 °FPassing clouds.8 mph61%30.07 "HgN/A
2:50 PM73 °FScattered clouds.7 mph65%30.07 "HgN/A
2:20 PM75 °FScattered clouds.6 mph61%30.07 "HgN/A
1:50 PM73 °FScattered clouds.7 mph65%30.07 "HgN/A
1:20 PM73 °FPassing clouds.7 mph61%30.07 "HgN/A
12:50 PM72 °FPassing clouds.6 mph65%30.07 "HgN/A
12:20 PM72 °FPassing clouds.6 mph69%30.07 "HgN/A
11:50 AM70 °FSunny.5 mph73%30.07 "Hg10 mi
11:20 AM70 °FSunny.5 mph69%30.07 "Hg10 mi
10:50 AM70 °FPassing clouds.5 mph69%30.04 "HgN/A
10:20 AM68 °FSunny.5 mph78%30.04 "Hg10 mi
9:50 AM68 °FPassing clouds.3 mph83%30.04 "HgN/A
9:20 AM66 °FPassing clouds.3 mph94%30.04 "HgN/A
8:50 AM64 °FSunny.1 mph100%30.04 "Hg10 mi
8:20 AM64 °FPassing clouds.1 mph100%30.01 "Hg3 mi
7:50 AM64 °FScattered clouds.2 mph100%30.01 "Hg3 mi
7:20 AM63 °FScattered clouds.2 mph100%30.01 "Hg3 mi
6:50 AM63 °FScattered clouds.2 mph100%30.01 "Hg3 mi
6:20 AM63 °FPassing clouds.2 mph100%30.01 "Hg3 mi
5:50 AM63 °FFog.2 mph100%29.98 "Hg2 mi
5:20 AM64 °FFog.3 mph100%29.98 "Hg1 mi
4:50 AM66 °FFog.3 mph94%29.98 "Hg1 mi
4:20 AM66 °FFog.3 mph100%29.98 "Hg1 mi
3:50 AM66 °FFog.2 mph100%29.98 "Hg1 mi
3:20 AM66 °FFog.3 mph100%29.98 "Hg1 mi
2:50 AM66 °FFog.3 mph100%29.98 "Hg1 mi
2:20 AM66 °FFog.5 mph100%29.98 "Hg1 mi
1:50 AM66 °FFog.3 mph100%29.98 "Hg1 mi
1:20 AM66 °FFog.2 mph100%29.98 "Hg1 mi
12:50 AM66 °FFog.3 mph100%29.98 "Hg2 mi
12:20 AM66 °FFog.3 mph100%29.98 "Hg2 mi
11:50 PM
Jul 21
66 °FFog.3 mph100%29.95 "Hg2 mi
11:20 PM66 °FFog.2 mph100%29.98 "Hg2 mi
10:50 PM66 °FFog.3 mph100%29.95 "Hg2 mi
10:20 PM66 °FFog.5 mph100%29.95 "Hg2 mi
9:50 PM66 °FDrizzle. Fog.2 mph100%29.95 "Hg2 mi
9:20 PM66 °FDrizzle. Fog.2 mph100%29.95 "Hg2 mi
8:50 PM66 °FDrizzle. Fog.2 mph100%29.95 "Hg2 mi
8:20 PM66 °FDrizzle. Partly sunny.3 mph100%29.95 "Hg2 mi
7:50 PM68 °FDrizzle. Partly sunny.2 mph94%29.95 "Hg2 mi
7:20 PM68 °FDrizzle. Partly sunny.3 mph94%29.95 "Hg2 mi
6:50 PM68 °FDrizzle. Partly sunny.3 mph94%29.92 "Hg2 mi
6:20 PM68 °FDrizzle. Broken clouds.3 mph94%29.92 "Hg2 mi
Weather by CustomWeather, © 2014

See weather overviewHow to use our weather pages